Location: Stilling
(56.0622°N, 9.9882°E)
Time: 12:51:44
(UTC+00:00)

NOSS 0 Rocket - Pass Details

Date: 13 July 2020
Orbit: 934 x 955 km, 70.0° (Epoch: 07 August)

Event Time Altitude Azimuth Distance (km) Brightness Sun altitude
Rises 20:43:54 0° 209° (SSW) 3,586 6.7 -5.1°
Reaches altitude 10° 20:46:25 10° 208° (SSW) 2,647 6.0 -5.3°
Maximum altitude 20:52:33 79° 123° (ESE) 964 3.9 -5.8°
Drops below altitude 10° 20:58:45 10° 38° (NE) 2,675 6.6 -6.3°
Sets 21:01:18 0° 38° (NE) 3,627 7.3 -6.5°
